Tracking 25648 objects as of 17-May-2022
HD Live streaming from Space Station
objects crossing your sky now

SPACEBEENZ-7

Track SPACEBEENZ-7 now!
10-day predictions


NORAD ID: 48889
Int'l Code: 2021-059L
Perigee: 516.6 km
Apogee: 528.8 km
Inclination: 97.6 °
Period: 94.9 minutes
Semi major axis: 6893 km
RCS: Unknown
Launch date: June 30, 2021
Source: New Zealand (NZ)
Launch site: AIR FORCE EASTERN TEST RANGE (AFETR)
aabbcc
Your satellite tracking list
Your tracking list is empty




NASA's NSSDC Master Catalog

Two Line Element Set (TLE):
1 48889U 21059L   22137.17452089  .00021248  00000-0  10818-2 0  9992
2 48889  97.5510 267.2829 0008828 208.4713 151.6038 15.16793358 49211
Source of the keplerian elements: AFSPC